Location: Aix-en-Ergny
(50.5839°N, 1.9996°E)
Time: 17:22:58
(UTC+00:00)

ARIANE 5 R/B - Pass Details

Date: 23 October 2019
Orbit: 748 x 795 km, 98.6° (Epoch: 19 November)

Event Time Altitude Azimuth Distance (km) Brightness Sun altitude
Rises 04:48:29 0° 1° (N) 3,210 5.8 -16.3°
Reaches altitude 10° 04:52:28 10° 329° (NNW) 2,279 4.7 -15.7°
Enters shadow 04:53:22 11° 319° (NW) 2,198 4.5 -15.5°
